Flag for Switzerland Weather past 2 weeks in La-Chaux-de-Fonds, Neuchâtel, Switzerland

37 °F

Sprinkles. Passing clouds.

Feels Like: 30 °F
Forecast: 37 / 40 °F
Wind: 10 mph from Southwest

Location: Les Eplatures

Current Time: Nov 29, 2015 at 6:44:40 PM

Latest Report: Nov 29, 2015 at 5:50 PM

Visibility: N/A

Pressure: 30.30 "Hg (26.77 "Hg at 1000m altitude)

Humidity: 93%

Dew point: 36 °F

Location of La-Chaux-de-FondsLocation

Historic Weather in La-Chaux-de-Fonds — Graph


La-Chaux-de-Fonds temperature yesterday

Maximum temperature yesterday: 32 °F (at 10:50 AM)
Minimum temperature yesterday: 14 °F (at 12:50 AM)
Average temperature yesterday: 27 °F

Past Weeks' High & Low Weather Summary

High57 °F (Nov 16, 1:20 PM)100% (Nov 18, 1:20 AM)30.39 "Hg (Nov 18, 1:20 AM)
Low9 °F (Nov 24, 1:50 AM)26% (Nov 16, 2:50 PM)29.42 "Hg (Nov 21, 12:20 PM)
Average36 °F87%30.03 "Hg
* Reported Nov 14 5:20 PM — Nov 29 5:20 PM, La-Chaux-de-Fonds, Weather by CustomWeather, © 2015

Note: Actual official high and low records may vary slightly from our data, if they occured in-between our weather recording intervals... More about our weather records


La-Chaux-de-Fonds weather history for previous 24 hours

Time TempWeatherWind HumidityBarometerVisibility
5:20 PM
Sun, Nov 29
37 °FLow clouds.8 mph93%30.27 "HgN/A
4:50 PM37 °FRain. Partly sunny.7 mph100%30.30 "HgN/A
4:20 PM36 °FSprinkles. Fog.7 mph100%30.30 "Hg2 mi
3:50 PM37 °FDrizzle. Partly sunny.9 mph93%30.27 "HgN/A
3:20 PM36 °FDrizzle. Low clouds.9 mph100%30.24 "HgN/A
2:50 PM36 °FDrizzle. Low clouds.9 mph100%30.24 "HgN/A
2:20 PM36 °FDrizzle. Partly sunny.8 mph100%30.24 "Hg3 mi
1:50 PM36 °FLow clouds.9 mph100%30.24 "HgN/A
1:20 PM36 °FPartly sunny.8 mph93%30.24 "HgN/A
12:50 PM36 °FLight rain. Low clouds.10 mph93%30.24 "HgN/A
12:20 PM36 °FLight rain. Partly sunny.7 mph93%30.24 "HgN/A
11:50 AM34 °FLight snow. Low clouds.7 mph100%30.24 "Hg6 mi
11:20 AM36 °FLight snow. Partly sunny.8 mph93%30.24 "Hg6 mi
10:20 AM34 °FLight snow. Partly sunny.8 mph100%30.24 "HgN/A
9:50 AM34 °FLight snow. Broken clouds.7 mph93%30.24 "Hg3 mi
9:20 AM34 °FLight snow. Broken clouds.7 mph93%30.24 "Hg2 mi
8:50 AM34 °FLight snow. Passing clouds.7 mph93%30.21 "Hg2 mi
8:20 AM32 °FLight snow. Passing clouds.6 mph100%30.21 "Hg1 mi
7:50 AM32 °FLight snow. Partly cloudy.7 mph100%30.21 "Hg3 mi
7:20 AM32 °FLight snow. Partly cloudy.7 mph100%30.18 "Hg2 mi
6:20 AM32 °FLight snow. Partly cloudy.8 mph93%30.18 "Hg3 mi
5:50 AM32 °FLight snow. Passing clouds.7 mph87%30.18 "HgN/A
5:20 AM30 °FLight snow. Overcast.8 mph86%30.18 "HgN/A
4:50 AM30 °FOvercast.9 mph86%30.21 "HgN/A
4:20 AM28 °FPartly cloudy.7 mph86%30.18 "HgN/A
3:50 AM28 °FPassing clouds.7 mph86%30.18 "HgN/A
3:20 AM28 °FClear.7 mph86%30.21 "HgN/A
2:50 AM28 °FChilly.7 mph86%30.21 "HgN/A
2:20 AM28 °FClear.7 mph86%30.21 "Hg10 mi
1:50 AM28 °FClear.6 mph86%30.21 "HgN/A
12:50 AM28 °FClear.5 mph93%30.21 "HgN/A
12:20 AM28 °FPassing clouds.8 mph93%30.21 "HgN/A
11:50 PM
Sat, Nov 28
28 °FPassing clouds.7 mph93%30.21 "HgN/A
11:20 PM27 °FPassing clouds.5 mph93%30.18 "HgN/A
10:50 PM25 °FPartly cloudy.6 mph100%30.21 "HgN/A
10:20 PM25 °FPassing clouds.5 mph93%30.18 "HgN/A
9:20 PM21 °FPassing clouds.1 mph100%30.18 "HgN/A
8:50 PM25 °FPartly cloudy.2 mph93%30.18 "HgN/A
8:20 PM23 °FCold.2 mph100%30.18 "HgN/A
7:50 PM25 °FClear.3 mph100%30.18 "HgN/A
7:20 PM25 °FCold.2 mph100%30.18 "HgN/A
6:50 PM27 °FPassing clouds.2 mph93%30.15 "HgN/A
6:20 PM27 °FChilly.2 mph93%30.15 "HgN/A
Weather by CustomWeather, © 2015

See weather overviewHow to use our weather pages